Weather History for Millinocket, ME

Change the Weather History Date:

Tuesday, February 26, 2013

  Actual Average Record
Temperature  
Mean Temperature 27 °F 22 °F  
Max Temperature 43 °F 32 °F 50 °F (1931)
Min Temperature 10 °F 12 °F -18 °F (1910)
Degree Days  
Heating Degree Days 38 43  
Month to date heating degree days 1101 1222  
Since 1 July heating degree days 5480 5968  
Cooling Degree Days 0 0  
Month to date cooling degree days 0 0  
Year to date cooling degree days 0 0  
Moisture  
Dew Point 19 °F    
Average Humidity 64    
Maximum Humidity 92    
Minimum Humidity 36    
Precipitation  
Precipitation 0.00 in 0.10 in 1.95 in (1965)
Month to date precipitation 1.58 1.98  
Year to date precipitation 2.92 4.91  
Sea Level Pressure  
Sea Level Pressure 30.34 in    
Wind  
Wind Speed 1 mph (NNW)    
Max Wind Speed 8 mph    
Max Gust Speed 12 mph    
Visibility 8 miles    
Events      
T = Trace of Precipitation, MM = Missing Value Source: NWS Daily Summary

Daily Weather History Graph

Daily Weather History Graph

Search for Another Location

Airport:

Trip Planner

Search our weather history database for the weather conditions in past years. The results will help you decide how hot, cold, wet, or windy it might be!

Date:

Astronomy

Feb. 26, 2013 Rise Set
Actual Time 6:18 AM EST 5:17 PM EST
Civil Twilight 5:48 AM EST 5:47 PM EST
Nautical Twilight 5:13 AM EST 6:22 PM EST
Astronomical Twilight 4:39 AM EST 6:56 PM EST
Moon 6:37 PM EST (2/26) 6:14 AM EST (2/26)
Length of Visible Light 11h 59m
Length of Day
10h 59m
Full, 99% of the Moon is Illuminated
Feb 26
Full
Mar 4
Last Quarter
Mar 11
New
Mar 19
First Quarter
Mar 27
Full

Hourly Weather History & Observations

Time (EST) Temp. Windchill Dew Point Humidity Pressure Visibility Wind Dir Wind Speed Gust Speed Precip Events Conditions
5:53 AM 10.9 °F - 8.1 °F 88% 30.35 in 10.0 mi Calm Calm - N/A   Clear
6:53 AM 10.9 °F - 7.0 °F 84% 30.36 in 7.0 mi Calm Calm - N/A   Clear
7:53 AM 16.0 °F - 12.0 °F 84% 30.38 in 4.0 mi Calm Calm - N/A   Clear
8:53 AM 24.1 °F - 19.9 °F 84% 30.39 in 10.0 mi Calm Calm - N/A   Clear
9:53 AM 33.1 °F - 25.0 °F 72% 30.39 in 10.0 mi Calm Calm - N/A   Clear
11:53 AM 39.0 °F - 18.0 °F 43% 30.36 in 10.0 mi Calm Calm - N/A   Clear
12:53 PM 41.0 °F 39.0 °F 18.0 °F 40% 30.34 in 10.0 mi North 3.5 mph - N/A   Clear
1:53 PM 42.1 °F - 17.1 °F 37% 30.32 in 10.0 mi Calm Calm - N/A   Clear
2:53 PM 41.0 °F 38.0 °F 19.0 °F 41% 30.32 in 10.0 mi NNW 4.6 mph - N/A   Mostly Cloudy
3:53 PM 39.9 °F 35.8 °F 21.0 °F 47% 30.34 in 10.0 mi NW 5.8 mph - N/A   Overcast
4:53 PM 37.9 °F 34.4 °F 23.0 °F 55% 30.34 in 10.0 mi NNW 4.6 mph - N/A   Overcast
5:53 PM 34.0 °F - 23.0 °F 64% 30.34 in 10.0 mi Calm Calm - N/A   Scattered Clouds
6:53 PM 30.0 °F - 23.0 °F 75% 30.35 in 10.0 mi Calm Calm - N/A   Clear
7:53 PM 27.0 °F - 21.9 °F 81% 30.35 in 10.0 mi Calm Calm - N/A   Clear
8:53 PM 26.1 °F - 21.9 °F 84% 30.35 in 5.0 mi Calm Calm - N/A   Clear
9:53 PM 23.0 °F - 19.9 °F 88% 30.34 in 5.0 mi Calm Calm - N/A   Clear
10:53 PM 23.0 °F - 19.9 °F 88% 30.34 in 3.0 mi Calm Calm - N/A   Clear
11:25 PM 23.0 °F - 19.4 °F 86% 30.29 in 2.5 mi Calm Calm - N/A   Clear
11:32 PM 21.2 °F - 19.4 °F 93% 30.29 in 4.0 mi Calm Calm - N/A   Clear
11:53 PM 21.9 °F - 19.0 °F 89% 30.32 in 5.0 mi Calm Calm - N/A   Clear